Wind_Speed
36 38 35 33 32 31 30 33 34 32 30 30 29 27 26 26 26 29 34 37 36 32 31 29 28 29 29 29 31 30 27 25 23 20 17 15 13 11 12 14 16 18
37 40 38 35 34 33 33 35 37 37 37 37 34 30 27 26 25 29 33 34 32 30 30 29 29 30 30 32 34 33 29 27 25 23 20 18 16 14 13 13 15 17
37 39 38 36 34 34 35 37 39 39 38 35 33 30 26 23 23 28 31 30 28 28 29 29 29 30 31 33 35 33 30 28 27 26 24 21 18 16 15 13 14 15
34 35 35 34 34 35 37 39 40 39 37 34 33 30 27 25 23 24 26 28 27 27 28 29 30 30 30 32 34 31 29 28 28 27 26 24 21 19 17 15 14 14
32 31 31 33 34 35 38 39 39 39 37 35 33 29 28 29 29 27 25 27 30 28 28 29 30 31 31 31 32 30 29 29 28 28 28 27 24 22 20 18 16 15
33 32 33 34 35 35 36 37 37 37 35 33 32 30 30 30 30 28 26 25 29 31 29 28 30 31 31 31 30 29 29 30 29 29 29 29 27 25 23 20 19 17
34 35 35 36 37 36 36 35 36 36 33 32 33 32 32 31 28 26 25 24 28 32 31 29 30 31 32 32 30 30 30 31 31 31 31 31 30 28 26 23 21 20
35 37 38 38 38 38 36 36 37 36 33 31 33 34 33 33 30 27 25 26 29 32 31 30 30 31 33 33 32 32 32 33 32 32 32 33 33 31 29 26 24 23
34 37 38 38 39 38 37 37 38 37 33 31 32 34 34 34 33 31 29 31 33 32 30 30 30 31 32 33 32 33 34 34 33 32 33 34 35 33 31 29 27 25
34 35 36 37 38 39 37 37 38 37 35 32 32 32 33 34 35 35 33 32 34 34 31 30 30 31 32 33 33 34 36 36 35 34 34 34 35 36 34 32 30 27
36 35 36 37 39 40 39 38 37 37 36 35 33 32 32 34 35 35 35 34 35 36 35 33 32 32 34 34 34 34 36 38 37 35 35 35 36 37 36 34 32 29
39 38 38 39 42 43 43 41 39 40 40 38 36 34 34 35 34 33 33 34 35 35 36 37 35 35 36 36 35 35 35 37 38 36 35 35 35 37 38 36 34 32
39 41 41 43 43 44 46 46 45 44 43 41 40 38 37 38 37 34 32 35 36 36 38 39 38 37 37 37 37 36 35 36 37 37 36 35 36 37 38 39 38 35
37 39 42 44 44 44 46 49 48 47 47 45 44 42 40 40 40 40 38 37 37 38 39 40 40 38 38 38 38 37 36 36 36 37 37 36 36 36 38 40 41 39
39 39 40 43 44 44 46 48 49 49 50 49 47 45 43 42 41 42 41 38 37 38 39 39 39 39 39 39 39 38 37 37 37 38 38 37 36 37 38 40 41 41
45 45 43 44 46 47 47 49 50 51 51 50 48 46 46 45 43 42 41 40 39 40 41 40 40 41 41 40 39 39 39 39 39 39 39 38 38 39 40 40 40 40
51 52 49 47 48 49 50 51 51 52 53 51 49 47 46 46 46 44 44 44 45 44 44 44 42 41 41 42 41 40 40 40 40 40 40 40 40 41 41 40 39 39
52 53 53 51 50 50 52 54 54 54 53 53 51 49 47 47 47 46 46 48 49 48 46 45 43 40 41 42 42 41 41 41 41 41 42 42 41 41 42 41 40 40
47 48 51 53 54 55 55 56 58 58 56 53 52 50 49 48 48 48 48 49 50 50 48 46 42 40 40 41 42 42 42 42 41 41 42 42 42 42 42 42 42 41
43 44 46 49 53 57 57 56 57 59 58 56 55 54 51 50 50 50 50 50 51 51 50 48 44 42 42 42 43 44 44 44 44 43 43 43 43 43 43 42 42 42
44 43 43 45 48 52 54 54 55 57 57 57 57 57 56 53 52 52 52 51 51 51 51 50 48 46 45 45 45 45 46 47 47 46 46 46 45 45 45 44 43 43
46 44 43 44 46 49 50 49 52 55 55 55 56 57 59 58 55 54 53 52 51 51 51 51 50 49 49 49 49 49 49 50 50 49 49 49 48 48 48 48 47 46
50 47 44 44 46 49 50 48 50 52 53 54 54 54 57 58 57 55 54 53 52 51 52 53 53 52 52 53 53 53 53 53 53 53 52 52 51 50 50 51 51 50
55 51 48 46 47 50 52 51 50 50 51 52 52 53 56 58 58 57 56 56 55 53 54 55 56 56 57 57 57 57 56 56 56 56 56 55 54 53 53 53 54 54
59 57 54 53 51 52 53 53 51 50 50 48 48 52 57 60 60 59 59 59 58 56 55 56 57 57 59 59 59 59 59 58 58 58 58 58 57 56 55 55 55 55
64 63 60 59 57 54 55 55 53 51 50 49 47 50 56 61 62 61 60 60 59 59 58 58 58 58 59 60 60 61 61 61 61 60 59 59 59 59 58 57 56 56
Wind_Direction
204 205 201 199 205 210 204 195 194 199 202 208 217 225 230 234 241 246 250 252 251 248 240 236 236 232 230 235 241 244 246 249 252 250 242 236 234 231 224 217 214 216
204 205 202 200 203 207 207 201 198 200 202 204 207 212 217 222 233 243 247 248 246 242 239 237 237 234 230 234 241 245 246 248 250 249 243 236 234 235 233 226 219 217
204 204 204 203 206 209 209 207 207 205 204 206 207 210 212 215 231 245 249 249 246 241 239 238 239 238 234 235 242 246 248 248 248 247 244 239 235 235 237 235 229 222
202 202 204 206 209 212 211 210 212 210 208 209 209 210 211 211 221 238 248 251 250 247 244 239 239 240 237 238 243 247 248 248 247 247 245 241 237 236 236 238 237 232
201 200 205 208 211 213 212 212 213 213 212 213 213 214 216 215 217 224 237 251 255 253 250 244 240 240 239 240 243 246 247 247 246 246 246 243 239 237 237 236 238 238
202 203 207 209 211 213 213 214 214 215 217 218 216 216 218 218 220 222 227 243 254 253 252 248 242 241 241 241 242 243 243 242 243 243 244 243 240 238 237 236 235 236
205 208 209 209 211 213 215 215 215 217 221 223 219 217 217 215 217 222 225 234 247 251 249 247 243 241 242 241 240 240 240 239 239 239 239 240 239 238 237 236 234 234
210 213 211 207 209 215 218 217 217 219 221 221 218 216 216 213 214 220 224 229 239 247 249 247 243 241 241 241 239 238 238 238 238 238 237 237 237 237 238 238 237 236
215 217 213 209 211 216 219 219 220 222 221 217 214 214 214 213 214 218 224 232 238 245 249 246 242 241 241 240 238 236 237 237 238 238 238 236 236 235 236 238 238 239
219 219 216 214 215 217 218 220 222 224 222 218 214 213 213 213 216 218 223 233 239 242 246 247 244 241 240 240 239 236 235 235 236 237 237 237 236 234 235 236 238 240
219 217 215 216 217 218 218 219 220 220 221 221 218 215 214 215 219 221 223 230 236 240 244 248 247 243 239 238 238 236 234 234 234 235 237 237 236 234 234 235 237 240
215 213 212 213 217 220 221 220 219 218 218 220 221 220 218 219 222 223 223 226 232 237 242 245 247 244 239 236 237 237 236 234 234 235 236 237 236 235 234 235 237 239
211 211 209 208 214 220 222 222 222 219 218 219 221 222 222 220 219 220 221 223 225 232 240 243 245 244 241 239 239 239 239 237 236 236 237 237 237 235 234 234 236 238
215 214 211 210 215 220 220 222 223 221 218 219 222 225 225 221 216 216 219 222 226 232 238 241 243 243 243 242 241 241 241 239 238 237 238 238 238 237 235 234 235 237
230 227 220 218 222 223 220 219 221 219 219 221 224 226 227 223 217 216 218 221 227 233 236 239 241 241 241 241 241 241 240 239 237 237 238 238 238 238 237 235 234 235
239 236 228 224 226 226 221 218 219 220 221 225 226 227 226 223 219 219 220 221 226 231 234 236 238 239 239 240 240 239 238 237 236 235 236 236 236 237 238 237 235 234
234 234 229 225 225 226 224 223 223 224 224 226 227 226 225 223 222 223 224 225 228 230 231 233 236 237 238 238 238 238 237 236 234 234 234 235 236 236 238 239 238 236
229 232 230 227 225 227 229 228 229 229 228 229 229 227 225 224 225 227 228 230 231 230 230 231 233 235 237 238 238 237 236 236 235 234 234 235 236 237 238 239 240 239
227 230 231 229 227 228 230 231 232 234 233 232 230 227 225 225 226 228 232 234 233 231 229 229 232 235 238 239 238 236 235 237 238 238 236 237 238 239 240 240 241 241
227 228 229 229 228 228 229 229 232 234 234 233 231 229 228 227 227 229 233 236 235 233 230 229 231 235 238 239 238 236 235 234 236 239 240 239 239 241 242 243 243 242
229 229 229 229 230 230 230 230 233 233 232 232 232 230 229 229 229 230 233 236 237 235 233 231 231 234 236 237 237 237 237 235 234 236 239 241 241 241 242 243 244 243
228 228 229 230 232 232 231 233 236 236 234 232 230 229 228 228 229 231 234 236 236 235 233 233 233 234 235 237 237 238 238 238 237 236 238 240 241 241 242 242 243 244
226 226 226 229 233 233 232 234 237 237 237 236 232 230 228 227 228 230 232 232 233 232 231 231 232 234 235 236 238 238 238 238 239 238 239 240 241 242 242 242 243 244
227 225 223 226 230 232 233 235 235 235 237 238 237 236 233 229 228 229 230 231 232 232 232 231 232 234 235 236 237 238 239 238 239 239 239 240 242 242 243 243 243 244
227 225 223 224 225 228 230 232 233 234 235 235 238 240 239 235 231 231 231 233 233 233 233 232 232 233 235 235 236 237 238 239 240 240 240 240 241 242 243 244 244 245
228 226 224 224 225 225 226 228 231 231 231 232 235 239 241 239 235 234 234 234 234 235 234 234 233 234 235 235 235 236 237 239 240 241 241 241 241 242 242 243 244 245
Height
10934 10938 10941 10942 10943 10947 10949 10949 10951 10956 10960 10963 10966 10969 10971 10973 10974 10973 10972 10971 10970 10971 10971 10971 10971 10971 10972 10973 10973 10973 10973 10974 10974 10975 10975 10975 10974 10974 10974 10974 10975 10975
10928 10931 10933 10935 10938 10942 10944 10945 10945 10945 10948 10952 10958 10961 10965 10970 10972 10971 10969 10968 10967 10967 10967 10968 10968 10968 10968 10969 10969 10970 10970 10971 10972 10972 10973 10973 10972 10973 10973 10973 10973 10973
10923 10926 10929 10931 10934 10936 10938 10940 10941 10942 10944 10949 10955 10957 10960 10966 10970 10969 10968 10967 10965 10964 10964 10964 10964 10964 10965 10965 10965 10966 10968 10969 10969 10969 10970 10971 10971 10971 10971 10971 10971 10971
10921 10924 10927 10929 10930 10931 10933 10934 10937 10941 10944 10946 10949 10953 10956 10961 10966 10968 10967 10965 10963 10962 10960 10960 10961 10961 10961 10962 10962 10964 10965 10966 10967 10967 10968 10968 10969 10969 10969 10969 10969 10969
10921 10923 10925 10925 10925 10926 10927 10929 10933 10938 10940 10942 10946 10951 10954 10956 10960 10963 10964 10962 10960 10959 10958 10957 10957 10957 10958 10959 10959 10961 10962 10963 10964 10965 10965 10966 10966 10967 10967 10967 10968 10967
10918 10919 10920 10921 10921 10922 10923 10925 10929 10933 10936 10939 10943 10946 10949 10951 10954 10955 10957 10958 10956 10955 10954 10954 10954 10954 10954 10955 10956 10957 10958 10959 10960 10961 10962 10963 10963 10964 10965 10965 10965 10965
10912 10912 10913 10915 10917 10918 10920 10921 10924 10927 10931 10934 10937 10940 10942 10946 10949 10950 10951 10953 10952 10950 10950 10950 10950 10950 10951 10951 10952 10954 10954 10955 10956 10957 10958 10959 10960 10961 10962 10963 10963 10963
10906 10906 10908 10911 10913 10914 10916 10917 10919 10921 10924 10927 10929 10932 10936 10940 10943 10945 10947 10948 10948 10947 10946 10946 10946 10947 10947 10947 10948 10950 10951 10951 10952 10953 10954 10955 10956 10957 10959 10960 10960 10960
10901 10902 10906 10910 10910 10910 10911 10913 10915 10916 10918 10920 10922 10925 10929 10933 10937 10940 10943 10944 10944 10943 10943 10943 10943 10943 10943 10944 10945 10946 10947 10948 10948 10950 10951 10952 10953 10954 10955 10956 10957 10958
10895 10898 10904 10907 10907 10906 10906 10909 10911 10912 10914 10915 10917 10920 10923 10927 10931 10934 10938 10940 10940 10940 10940 10939 10939 10939 10940 10940 10941 10942 10943 10944 10945 10946 10947 10948 10949 10950 10952 10953 10954 10955
10886 10892 10898 10901 10902 10900 10901 10903 10905 10907 10909 10910 10913 10916 10919 10922 10925 10928 10932 10934 10935 10936 10936 10936 10935 10935 10935 10936 10936 10937 10938 10939 10941 10942 10943 10944 10946 10947 10948 10950 10951 10952
10879 10884 10889 10892 10893 10894 10895 10897 10899 10901 10903 10905 10908 10911 10914 10917 10920 10922 10925 10928 10930 10931 10931 10930 10930 10929 10930 10931 10932 10933 10934 10935 10937 10938 10940 10941 10942 10944 10945 10947 10948 10949
10872 10877 10880 10883 10884 10886 10888 10890 10892 10894 10896 10898 10901 10904 10908 10912 10915 10917 10920 10923 10925 10925 10924 10923 10924 10925 10926 10927 10929 10930 10931 10932 10934 10935 10936 10938 10939 10940 10941 10943 10944 10945
10864 10868 10872 10875 10875 10877 10880 10883 10885 10887 10889 10891 10894 10898 10901 10905 10908 10911 10913 10916 10918 10918 10917 10917 10920 10922 10923 10924 10925 10926 10928 10929 10931 10932 10933 10934 10936 10937 10938 10939 10940 10942
10860 10862 10866 10868 10869 10870 10874 10877 10880 10882 10883 10885 10888 10891 10894 10898 10901 10903 10906 10908 10910 10910 10910 10913 10915 10916 10918 10919 10920 10922 10924 10925 10926 10927 10929 10931 10933 10934 10935 10935 10936 10938
10859 10860 10863 10865 10864 10865 10869 10872 10875 10877 10879 10881 10883 10885 10889 10892 10895 10897 10900 10901 10901 10902 10904 10906 10908 10909 10911 10912 10914 10916 10918 10919 10921 10922 10924 10927 10929 10930 10931 10932 10933 10934
10855 10855 10858 10861 10861 10861 10863 10866 10869 10871 10874 10876 10879 10882 10885 10887 10890 10892 10894 10894 10894 10895 10898 10899 10901 10903 10905 10906 10908 10910 10911 10913 10915 10917 10919 10921 10923 10925 10927 10928 10929 10930
10848 10848 10852 10856 10859 10859 10860 10861 10863 10865 10868 10871 10874 10878 10880 10883 10886 10888 10889 10889 10890 10891 10893 10894 10896 10899 10900 10901 10903 10905 10906 10908 10910 10912 10914 10916 10918 10920 10922 10924 10925 10926
10844 10845 10847 10851 10855 10857 10857 10858 10859 10859 10862 10865 10868 10872 10875 10877 10880 10882 10884 10885 10885 10887 10888 10890 10893 10896 10897 10898 10900 10902 10903 10904 10906 10909 10910 10912 10914 10916 10918 10919 10921 10922
10841 10842 10844 10846 10850 10852 10853 10855 10856 10855 10857 10860 10862 10866 10868 10871 10873 10875 10877 10879 10881 10883 10885 10887 10889 10892 10893 10894 10896 10898 10899 10901 10902 10905 10906 10908 10910 10911 10913 10915 10916 10918
10838 10840 10841 10843 10845 10846 10847 10849 10850 10851 10853 10855 10857 10860 10862 10864 10866 10868 10871 10874 10877 10879 10881 10883 10885 10887 10889 10890 10892 10893 10894 10895 10897 10899 10901 10903 10904 10906 10908 10909 10911 10912
10834 10836 10838 10840 10841 10840 10841 10842 10843 10845 10848 10850 10852 10855 10857 10858 10860 10862 10865 10868 10871 10874 10876 10878 10880 10882 10884 10886 10887 10888 10889 10889 10891 10893 10895 10896 10898 10900 10902 10903 10904 10906
10828 10831 10835 10838 10838 10836 10836 10837 10837 10840 10842 10845 10847 10849 10851 10853 10854 10856 10859 10861 10864 10867 10869 10872 10874 10876 10878 10880 10881 10882 10882 10883 10884 10886 10888 10889 10891 10893 10895 10896 10898 10899
10823 10826 10829 10832 10832 10832 10832 10832 10832 10833 10835 10838 10842 10843 10844 10846 10848 10850 10853 10855 10858 10860 10863 10865 10867 10869 10871 10873 10875 10875 10875 10876 10877 10879 10881 10883 10885 10886 10888 10889 10891 10892
10816 10819 10820 10820 10820 10822 10824 10825 10826 10829 10832 10836 10839 10839 10838 10839 10841 10843 10846 10848 10851 10853 10855 10858 10860 10862 10863 10864 10867 10868 10868 10869 10870 10871 10874 10877 10879 10880 10881 10882 10884 10886
10808 10810 10811 10810 10811 10813 10815 10816 10819 10823 10827 10830 10832 10833 10832 10832 10834 10837 10839 10841 10843 10845 10848 10850 10853 10854 10854 10856 10858 10859 10859 10861 10862 10864 10867 10870 10872 10873 10875 10876 10878 10881